カタログに戻る

STARLINK-3545

運用中通信VLEO
NORAD 51855·PAYLOAD·🇺🇸 United States

打ち上げ Mar 3, 2022 から Cape Canaveral Space Force Station

Loading…

次のパス (今後24時間)

TLE

最新Source: CelesTrak SupGP

元期: Sep 15, 2026, 02:00 UTC

1 51855C 22022D   26258.08381944 -.00056927  00000+0 -16820-2 0  2589
2 51855  53.1579 234.7410 0001374  92.7141 338.9539 15.34417743    16

AllMySatでSTARLINK-3545をリアルタイム追跡

Download on the App Store